TimeCDT,TemperatureF,Dew PointF,Humidity,Sea Level PressureIn,VisibilityMPH,Wind Direction,Wind SpeedMPH,Gust SpeedMPH,PrecipitationIn,Events,Conditions,WindDirDegrees,DateUTC
12:53 AM,51.1,24.1,35,29.64,10.0,West,8.1,-,N/A,,Clear,270,2012-10-18 05:53:00
1:53 AM,51.1,23.0,33,29.65,10.0,West,11.5,-,N/A,,Clear,270,2012-10-18 06:53:00
2:53 AM,48.0,25.0,41,29.65,10.0,West,10.4,-,N/A,,Clear,260,2012-10-18 07:53:00
3:53 AM,48.9,25.0,39,29.64,10.0,West,10.4,-,N/A,,Clear,280,2012-10-18 08:53:00
4:53 AM,48.9,24.1,38,29.64,10.0,West,12.7,20.7,N/A,,Clear,280,2012-10-18 09:53:00
5:53 AM,48.9,24.1,38,29.64,10.0,West,15.0,21.9,N/A,,Clear,280,2012-10-18 10:53:00
6:53 AM,48.9,23.0,36,29.64,10.0,West,16.1,27.6,N/A,,Clear,270,2012-10-18 11:53:00
7:53 AM,48.0,23.0,37,29.64,10.0,West,17.3,28.8,N/A,,Clear,270,2012-10-18 12:53:00
8:53 AM,50.0,24.1,36,29.63,10.0,West,16.1,25.3,N/A,,Mostly Cloudy,270,2012-10-18 13:53:00
9:53 AM,53.1,24.1,32,29.62,10.0,WNW,25.3,32.2,N/A,,Scattered Clouds,290,2012-10-18 14:53:00
10:53 AM,54.0,24.1,31,29.62,10.0,WNW,20.7,33.4,N/A,,Mostly Cloudy,290,2012-10-18 15:53:00
11:53 AM,55.9,24.1,29,29.62,10.0,WNW,25.3,40.3,N/A,,Overcast,290,2012-10-18 16:53:00
12:53 PM,57.0,25.0,29,29.62,10.0,West,21.9,42.6,N/A,,Mostly Cloudy,270,2012-10-18 17:53:00
1:53 PM,55.0,26.1,33,29.62,10.0,WNW,20.7,31.1,N/A,,Overcast,290,2012-10-18 18:53:00
2:53 PM,55.0,26.1,33,29.61,10.0,West,19.6,34.5,N/A,,Overcast,280,2012-10-18 19:53:00
3:53 PM,54.0,28.9,38,29.63,10.0,West,21.9,34.5,0.00,,Overcast,280,2012-10-18 20:53:00
4:53 PM,50.0,36.0,59,29.65,10.0,West,18.4,32.2,0.00,Rain,Light Rain,280,2012-10-18 21:53:00
5:53 PM,51.1,33.1,50,29.65,10.0,WNW,25.3,42.6,0.00,Rain,Light Rain,290,2012-10-18 22:53:00
6:53 PM,52.0,34.0,50,29.65,10.0,WNW,25.3,35.7,0.00,Rain,Light Rain,290,2012-10-18 23:53:00
7:53 PM,52.0,34.0,50,29.65,10.0,WNW,19.6,33.4,0.00,,Overcast,290,2012-10-19 00:53:00
8:53 PM,51.1,35.1,54,29.65,10.0,WNW,20.7,28.8,N/A,,Overcast,300,2012-10-19 01:53:00
9:53 PM,50.0,36.0,59,29.66,10.0,WNW,20.7,38.0,0.00,,Light Drizzle,300,2012-10-19 02:53:00
10:53 PM,48.9,36.0,61,29.66,10.0,WNW,19.6,35.7,0.00,,Overcast,300,2012-10-19 03:53:00
11:35 PM,46.4,37.4,71,29.67,10.0,WNW,18.4,33.4,0.00,Rain,Light Rain,300,2012-10-19 04:35:00
11:53 PM,46.9,39.9,77,29.67,10.0,WNW,15.0,25.3,0.00,Rain,Light Rain,290,2012-10-19 04:53:00